Home > Weather > Rapid City > Past weeks

Flag for USA Past Weather in Rapid City, South Dakota, USA — Yesterday and Last 2 Weeks

Now
56 °F

Passing clouds.


Feels Like: 51 °F
Forecast: 46 / 62 °F
Wind: 21 mph from Northwest

Location: Ellsworth Air Force Base

Current Time: May 30, 2016 at 10:11:20 PM

Latest Report: May 30, 2016 at 8:58 PM


Visibility: 10 mi

Pressure: 29.96 "Hg (26.67 "Hg at 977m altitude)

Humidity: 62%

Dew Point: 43 °F

Location of Rapid CityLocation

Past Weather in Rapid City — Graph

°F

Rapid City Temperature Yesterday

Maximum temperature yesterday: 75 °F (at 5:58 PM)
Minimum temperature yesterday: 45 °F (at 3:58 AM)
Average temperature yesterday: 62 °F

High & Low Weather Summary for the Past Weeks

 TemperatureHumidityPressure
High81 °F (May 22, 3:59 PM)100% (May 16, 4:58 AM)30.33 "Hg (May 16, 4:58 AM)
Low35 °F (May 17, 4:58 AM)14% (May 23, 3:58 PM)29.58 "Hg (May 22, 4:58 PM)
Average59 °F65%29.88 "Hg
* Reported May 15 8:58 PM — May 30 8:04 PM, Rapid City, Weather by CustomWeather, © 2016

Note: Actual official high and low records may vary slightly from our data, if they occured in-between our weather recording intervals... More about our weather records

Advertising

Rapid City Weather History for the Previous 24 Hours

Scroll right to see more
 ConditionsComfort  
Time TempWeatherWind HumidityBarometerVisibility
8:04 PM
Mon, May 30
55 °FOvercast.24 mph77%30.00 "Hg10 mi
6:58 PM57 °FPassing clouds.38 mph70%29.92 "Hg10 mi
5:58 PM69 °FSunny.23 mph49%29.85 "Hg10 mi
4:58 PM69 °FSunny.28 mph47%29.82 "Hg10 mi
3:58 PM66 °FScattered clouds.23 mph63%29.83 "Hg10 mi
3:03 PM61 °FThunderstorms. Mostly cloudy.26 mph83%29.86 "Hg4 mi
2:58 PM63 °FThundershowers. Mostly cloudy.30 mph72%29.82 "Hg10 mi
1:58 PM75 °FThundershowers. Scattered clouds.32 mph48%29.80 "Hg10 mi
12:58 PM75 °FPartly sunny.17 mph46%29.78 "Hg10 mi
11:58 AM78 °FScattered clouds.15 mph39%29.78 "Hg10 mi
10:58 AM76 °FPassing clouds.1 mph41%29.79 "Hg10 mi
9:58 AM74 °FScattered clouds.5 mph45%29.79 "Hg10 mi
8:58 AM65 °FBroken clouds.2 mph67%29.81 "Hg10 mi
7:58 AM61 °FScattered clouds.7 mph78%29.81 "Hg10 mi
6:58 AM58 °FScattered clouds.3 mph87%29.83 "Hg10 mi
5:58 AM52 °FSunny.6 mph96%29.85 "Hg10 mi
4:58 AM51 °FClear.6 mph93%29.87 "Hg10 mi
3:58 AM52 °FClear.7 mph94%29.86 "Hg10 mi
2:58 AM54 °FClear.3 mph91%29.89 "Hg10 mi
1:58 AM53 °FClear.7 mph97%29.90 "Hg10 mi
12:58 AM58 °FClear.No wind84%29.92 "Hg10 mi
11:58 PM
Sun, May 29
58 °FClear.No wind82%29.93 "Hg10 mi
10:58 PM60 °FClear.3 mph80%29.94 "Hg10 mi
Weather by CustomWeather, © 2016

See weather overviewHow to use our weather pages